TimeCST,TemperatureF,Dew PointF,Humidity,Sea Level PressureIn,VisibilityMPH,Wind Direction,Wind SpeedMPH,Gust SpeedMPH,PrecipitationIn,Events,Conditions,WindDirDegrees,DateUTC
12:53 AM,32.0,28.0,85,30.31,10.0,Calm,Calm,-,N/A,,Clear,0,2013-02-17 06:53:00
1:53 AM,30.9,26.1,82,30.32,10.0,Calm,Calm,-,N/A,,Clear,0,2013-02-17 07:53:00
2:53 AM,30.0,27.0,88,30.32,10.0,Calm,Calm,-,N/A,,Clear,0,2013-02-17 08:53:00
3:53 AM,30.0,26.1,85,30.33,10.0,Calm,Calm,-,N/A,,Clear,0,2013-02-17 09:53:00
4:53 AM,30.0,26.1,85,30.34,10.0,Calm,Calm,-,N/A,,Clear,0,2013-02-17 10:53:00
5:53 AM,28.9,25.0,85,30.35,10.0,Calm,Calm,-,N/A,,Clear,0,2013-02-17 11:53:00
6:53 AM,28.0,25.0,88,30.35,10.0,Calm,Calm,-,N/A,,Clear,0,2013-02-17 12:53:00
7:53 AM,36.0,27.0,70,30.38,10.0,Calm,Calm,-,N/A,,Clear,0,2013-02-17 13:53:00
8:53 AM,43.0,26.1,51,30.40,10.0,East,8.1,-,0.00,,Clear,100,2013-02-17 14:53:00
9:53 AM,46.9,21.0,36,30.40,10.0,East,4.6,-,N/A,,Clear,90,2013-02-17 15:53:00
10:53 AM,50.0,21.0,32,30.40,10.0,Calm,Calm,-,N/A,,Clear,0,2013-02-17 16:53:00
11:53 AM,52.0,21.9,31,30.35,10.0,South,9.2,-,N/A,,Clear,190,2013-02-17 17:53:00
12:53 PM,53.1,27.0,37,30.33,10.0,Variable,5.8,-,N/A,,Clear,0,2013-02-17 18:53:00
1:53 PM,52.0,26.1,37,30.32,10.0,SSW,5.8,-,N/A,,Clear,200,2013-02-17 19:53:00
2:53 PM,52.0,28.0,40,30.31,10.0,South,6.9,-,N/A,,Clear,190,2013-02-17 20:53:00
3:53 PM,53.1,30.0,41,30.30,10.0,SSW,6.9,-,N/A,,Clear,210,2013-02-17 21:53:00
4:53 PM,51.1,30.0,44,30.29,10.0,SW,4.6,-,N/A,,Clear,220,2013-02-17 22:53:00
5:53 PM,48.0,32.0,54,30.29,10.0,South,3.5,-,N/A,,Clear,180,2013-02-17 23:53:00
7:53 PM,39.0,36.0,89,30.30,10.0,Calm,Calm,-,N/A,,Clear,0,2013-02-18 01:53:00
8:53 PM,39.0,35.1,86,30.31,10.0,Calm,Calm,-,N/A,,Clear,0,2013-02-18 02:53:00
9:53 PM,37.0,34.0,89,30.31,10.0,Calm,Calm,-,N/A,,Clear,0,2013-02-18 03:53:00
11:53 PM,36.0,34.0,93,30.29,6.0,Calm,Calm,-,N/A,,Clear,0,2013-02-18 05:53:00
11:57 PM,35.6,33.8,93,30.28,1.5,Calm,Calm,-,N/A,,Clear,0,2013-02-18 05:57:00